Tracking 29042 objects as of 20-Jun-2024
HD Live streaming from Space Station
objects crossing your sky now

STARLINK-4063

Track STARLINK-4063 now!
10-day predictions
STARLINK-4063 is classified as:


NORAD ID: 53132
Int'l Code: 2022-083A
Perigee: 545.8 km
Apogee: 548.0 km
Inclination: 53.2 °
Period: 95.4 minutes
Semi major axis: 6917 km
RCS: Unknown
Launch date: July 17, 2022
Source: United States (US)
Launch site: AIR FORCE EASTERN TEST RANGE (AFETR)
Your satellite tracking list
Your tracking list is empty




NASA's NSSDC Master Catalog

Two Line Element Set (TLE):
1 53132U 22083A   24172.24134716 -.00000250  00000-0  24175-5 0  9995
2 53132  53.2182 110.8412 0001563 102.5634 257.5533 15.08839890106491
Source of the keplerian elements: AFSPC